Location: Miles
(41.4492°N, 81.6087°W)
Time: 22:33:05
(UTC+00:00)

Courier 1B - Pass Details

Date: 21 September 2024
Orbit: 962 x 1208 km, 28.3° (Epoch: 13 October)

Event Time Altitude Azimuth Distance (km) Brightness Sun altitude
Rises 18:43:30 0° 245° (WSW) 3,739 11.1 44.7°
Reaches altitude 10° 18:46:31 10° 234° (SW) 2,825 10.8 44.4°
Maximum altitude 18:52:13 28° 178° (S) 1,892 10.2 43.8°
Drops below altitude 10° 18:58:12 10° 123° (ESE) 2,978 10.1 43.2°
Sets 19:01:28 0° 112° (ESE) 3,979 10.6 42.8°
